Location: Chrome
(40.5765°N, 74.2163°W)
Time: 16:14:23
(UTC+00:00)

Helios 1A Rocket - Pass Details

Date: 06 December 2019
Orbit: 564 x 587 km, 98.3° (Epoch: 26 January)

Event Time Altitude Azimuth Distance (km) Brightness Sun altitude
Rises 22:09:04 0° 183° (S) 2,794 6.8 -7.5°
Reaches altitude 10° 22:11:19 10° 191° (S) 1,897 6.1 -7.9°
Maximum altitude 22:15:11 39° 261° (W) 873 4.6 -8.6°
Drops below altitude 10° 22:19:04 10° 331° (NNW) 1,900 5.7 -9.3°
Sets 22:21:19 0° 339° (NNW) 2,799 6.4 -9.7°
